Regional Weather Roundup
Issued by NWS

Home | Current Version | Previous Version | Text Only | Print | Product List | Glossary Off
Versions: 1 2 3 4 5 6 7 8 9 10 11 12 13 14 15 16 17 18 19 20 21 22 23 24 25 26 27

000
ASUS45 KCYS 032110
RWRWY

WYOMING REGIONAL WEATHER ROUNDUP
NATIONAL WEATHER SERVICE CHEYENNE WY
200 PM MST SAT DEC 03 2016

NOTE:  "FAIR" INDICATES FEW OR NO CLOUDS BELOW 12,000 FEET
WITH NO SIGNIFICANT WEATHER AND/OR OBSTRUCTIONS TO VISIBILITY.

WYZ001-032200-
YELLOWSTONE NATIONAL PARK

CITY           SKY/WX    TMP DP  RH WIND       PRES   REMARKS
LK YELLOWSTONE   N/A     18  12  77 MISG      30.04S
W YELLOWSTONE  NOT AVBL

$$
WYZ002>013-054>058-071-098>099-032200-
NORTHERN WYOMING

CITY           SKY/WX    TMP DP  RH WIND       PRES   REMARKS
JACKSON        CLOUDY    25  19  80 S12       30.08F WCI  14
CODY           NOT AVBL
GREYBULL       FAIR      38  14  37 SE8       29.96S WCI  32
WORLAND        FAIR      39  14  36 S6        29.95F WCI  35
SHERIDAN       CLOUDY    43  19  38 N12       29.88S
BUFFALO        CLOUDY    40  12  32 S8        29.88F WCI  34
GILLETTE       PTSUNNY   37  24  59 W13       29.88F WCI  29
HULETT         CLOUDY    34  27  75 SW8       29.88S WCI  27
NEWCASTLE      MOCLDY    32  19  59 N5        29.91S WCI  27

$$
WYZ014>020-022>026-101>103-032200-
CENTRAL WYOMING

CITY           SKY/WX    TMP DP  RH WIND       PRES   REMARKS
BIG PINEY      FAIR      29  13  51 N23G29    30.05S WCI  15
PINEDALE       FAIR      27  14  59 NW21G31   30.05F WCI  13
DUBOIS         FAIR      28   9  43 W17G31    29.98S WCI  16
LANDER         FAIR      35  11  36 W6        29.95S WCI  30
RIVERTON       FAIR      38   8  29 NW33G44   29.93F WCI  25
CASPER         CLOUDY    35  13  40 SW17G25   29.94S WCI  25
DOUGLAS        PTSUNNY   39  13  34 W26G35    29.92S WCI  28

$$
WYZ021-027>030-104>119-032200-
SOUTHERN WYOMING

CITY           SKY/WX    TMP DP  RH WIND       PRES   REMARKS
EVANSTON       CLOUDY    25  12  58 SW17      30.14F WCI  12
FORT BRIDGER   FAIR      29  17  61 W28G36    30.12F WCI  13
ROCK SPRINGS   CLOUDY    24  15  68 W23       30.07F WCI   9
DIXON          CLOUDY    28  14  55 SW10G16   30.12F WCI  19
RAWLINS        CLOUDY    27  13  55 SW20G30   30.02S WCI  13
SARATOGA       CLOUDY    27  12  54 SW17G28   30.04S WCI  14
LARAMIE        CLOUDY    28   7  41 W21G30    29.95S WCI  15
CHEYENNE       CLOUDY    33  11  39 W25G37    29.93R WCI  20
TORRINGTON     FAIR      41  11  29 W22G33    29.92F
PINE BLUFFS    FAIR      39  10  30 NW24G36   29.94F WCI  28

$$




USA.gov is the U.S. government's official web portal to all federal, state and local government web resources and services.